When you browse on this site, cookies collect data to enhance your experience and personalize the content and advertising you see.
Visit our Privacy Policy to learn more. By continuing to use the site, you agree to this use of cookies and data.
  • In Portugal
  • List of Countries
  • For 7 days
  • Water Temperature
  • Weather Map
  • Weather Widgets
  • user-avatar
    Login

    Hourly Weather Złoczew

    Today, 7 April, Tuesday

    Time Temperature Precipitation Wind Pressure Humidity
    00:00 +9°C° 0 mm 5 mps 756 mmHg 53%
    01:00 +9°C° 0 mm 5 mps 756 mmHg 51%
    02:00 +8°C° 0 mm 5 mps 756 mmHg 52%
    03:00 +8°C° 0 mm 6 mps 756 mmHg 53%
    04:00 +8°C° 0 mm 6 mps 756 mmHg 53%
    05:00 +8°C° 0 mm 6 mps 756 mmHg 52%
    06:00 +8°C° 0 mm 6 mps 756 mmHg 52%
    07:00 +9°C° 0 mm 6 mps 756 mmHg 50%
    08:00 +11°C° 0 mm 6 mps 756 mmHg 45%
    09:00 +12°C° 0 mm 7 mps 756 mmHg 41%
    10:00 +15°C° 0 mm 7 mps 756 mmHg 36%
    11:00 +16°C° 0 mm 6 mps 756 mmHg 35%
    12:00 +17°C° 0 mm 6 mps 756 mmHg 35%
    13:00 +20°C° 0 mm 5 mps 756 mmHg 36%
    14:00 +20°C° 0 mm 4 mps 756 mmHg 37%
    15:00 +20°C° 0 mm 4 mps 756 mmHg 38%
    16:00 +20°C° 0 mm 4 mps 755 mmHg 39%
    17:00 +18°C° 0 mm 3 mps 756 mmHg 45%
    18:00 +16°C° 0 mm 3 mps 756 mmHg 51%
    19:00 +15°C° 0 mm 2 mps 756 mmHg 57%
    20:00 +14°C° 0 mm 2 mps 757 mmHg 60%
    21:00 +13°C° 0 mm 2 mps 757 mmHg 63%
    22:00 +11°C° 0 mm 3 mps 757 mmHg 67%
    23:00 +10°C° 0 mm 3 mps 757 mmHg 72%

    Tomorrow, 8 April, Wednesday

    Time Temperature Precipitation Wind Pressure Humidity
    00:00 +10°C° 0 mm 3 mps 758 mmHg 77%
    01:00 +9°C° 0 mm 3 mps 758 mmHg 82%
    02:00 +8°C° 0 mm 2 mps 758 mmHg 83%
    03:00 +8°C° 0 mm 2 mps 757 mmHg 83%
    04:00 +7°C° 0 mm 2 mps 757 mmHg 84%
    05:00 +8°C° 0 mm 2 mps 757 mmHg 80%
    06:00 +8°C° 0 mm 2 mps 757 mmHg 76%
    07:00 +9°C° 0 mm 2 mps 757 mmHg 71%
    08:00 +12°C° 0 mm 2 mps 757 mmHg 66%
    09:00 +14°C° 0 mm 2 mps 757 mmHg 60%
    10:00 +16°C° 0 mm 2 mps 756 mmHg 55%
    11:00 +17°C° 0 mm 2 mps 756 mmHg 52%
    12:00 +19°C° 0 mm 1 mps 755 mmHg 49%
    13:00 +20°C° 0 mm 1 mps 755 mmHg 46%
    14:00 +20°C° 0 mm 1 mps 754 mmHg 43%
    15:00 +21°C° 0 mm 1 mps 754 mmHg 41%
    16:00 +21°C° 0 mm 1 mps 753 mmHg 39%
    17:00 +19°C° 0 mm 1 mps 753 mmHg 42%
    18:00 +17°C° 0 mm 2 mps 753 mmHg 45%
    19:00 +15°C° 0 mm 2 mps 752 mmHg 47%
    20:00 +14°C° 0 mm 2 mps 752 mmHg 46%
    21:00 +13°C° 0 mm 2 mps 752 mmHg 44%
    22:00 +12°C° 0 mm 2 mps 752 mmHg 42%
    23:00 +10°C° 0 mm 2 mps 752 mmHg 45%

    Day after tomorrow, 9 April, Thursday

    Time Temperature Precipitation Wind Pressure Humidity
    00:00 +10°C° 0 mm 2 mps 752 mmHg 49%
    01:00 +9°C° 0 mm 3 mps 751 mmHg 52%
    02:00 +8°C° 0 mm 2 mps 751 mmHg 54%
    03:00 +8°C° 0 mm 2 mps 751 mmHg 56%
    04:00 +7°C° 0 mm 2 mps 750 mmHg 57%
    05:00 +8°C° 0 mm 3 mps 750 mmHg 57%
    06:00 +9°C° 0 mm 3 mps 750 mmHg 57%
    07:00 +9°C° 0 mm 3 mps 750 mmHg 57%
    08:00 +11°C° 0 mm 3 mps 749 mmHg 53%
    09:00 +13°C° 0 mm 4 mps 749 mmHg 48%
    10:00 +15°C° 0 mm 4 mps 749 mmHg 44%
    11:00 +17°C° 0 mm 4 mps 749 mmHg 43%
    12:00 +17°C° 0 mm 5 mps 749 mmHg 42%
    13:00 +19°C° 0 mm 5 mps 749 mmHg 41%
    14:00 +17°C° 0.1 mm 5 mps 749 mmHg 52%
    15:00 +15°C° 0.1 mm 5 mps 749 mmHg 63%
    16:00 +14°C° 0.1 mm 5 mps 749 mmHg 74%
    17:00 +13°C° 0 mm 5 mps 749 mmHg 73%
    18:00 +12°C° 0 mm 4 mps 749 mmHg 72%
    19:00 +11°C° 0 mm 4 mps 749 mmHg 71%
    20:00 +11°C° 0 mm 3 mps 750 mmHg 74%
    21:00 +10°C° 0 mm 3 mps 750 mmHg 77%
    22:00 +9°C° 0 mm 3 mps 751 mmHg 80%
    23:00 +8°C° 0 mm 3 mps 751 mmHg 78%

    10 April, Friday

    Time Temperature Precipitation Wind Pressure Humidity
    00:00 +7°C° 0 mm 3 mps 751 mmHg 77%
    01:00 +5°C° 0 mm 3 mps 752 mmHg 75%
    02:00 +4°C° 0 mm 3 mps 752 mmHg 74%
    03:00 +4°C° 0 mm 2 mps 752 mmHg 73%
    04:00 +3°C° 0 mm 2 mps 752 mmHg 72%
    05:00 +4°C° 0 mm 2 mps 752 mmHg 69%
    06:00 +4°C° 0 mm 2 mps 753 mmHg 67%
    07:00 +5°C° 0 mm 2 mps 753 mmHg 65%
    08:00 +6°C° 0 mm 2 mps 753 mmHg 59%
    09:00 +8°C° 0 mm 2 mps 753 mmHg 54%
    10:00 +9°C° 0 mm 2 mps 753 mmHg 48%
    11:00 +10°C° 0 mm 2 mps 753 mmHg 44%
    12:00 +12°C° 0 mm 2 mps 753 mmHg 40%
    13:00 +13°C° 0 mm 2 mps 753 mmHg 37%
    14:00 +13°C° 0 mm 2 mps 752 mmHg 37%
    15:00 +13°C° 0 mm 2 mps 752 mmHg 38%
    16:00 +14°C° 0 mm 2 mps 751 mmHg 38%
    17:00 +12°C° 0 mm 2 mps 751 mmHg 43%
    18:00 +10°C° 0 mm 2 mps 751 mmHg 48%
    19:00 +9°C° 0 mm 1 mps 751 mmHg 54%
    20:00 +9°C° 0 mm 1 mps 752 mmHg 55%
    21:00 +8°C° 0 mm 1 mps 752 mmHg 57%
    22:00 +6°C° 0 mm 0 mps 752 mmHg 59%
    23:00 +6°C° 0 mm 0 mps 752 mmHg 60%

    11 April, Saturday

    Time Temperature Precipitation Wind Pressure Humidity
    00:00 +6°C° 0 mm 0 mps 752 mmHg 61%
    01:00 +5°C° 0 mm 0 mps 752 mmHg 62%
    02:00 +5°C° 0 mm 0 mps 752 mmHg 64%
    03:00 +4°C° 0 mm 0 mps 752 mmHg 65%
    04:00 +4°C° 0 mm 0 mps 752 mmHg 67%
    05:00 +6°C° 0 mm 1 mps 752 mmHg 64%
    06:00 +7°C° 0 mm 1 mps 752 mmHg 62%
    07:00 +8°C° 0 mm 1 mps 753 mmHg 60%
    08:00 +10°C° 0 mm 1 mps 753 mmHg 55%
    09:00 +11°C° 0 mm 1 mps 753 mmHg 50%
    10:00 +12°C° 0 mm 0 mps 753 mmHg 45%
    11:00 +13°C° 0 mm 0 mps 753 mmHg 42%
    12:00 +14°C° 0 mm 0 mps 752 mmHg 39%
    13:00 +14°C° 0 mm 0 mps 752 mmHg 37%
    14:00 +14°C° 0 mm 0 mps 752 mmHg 36%
    15:00 +14°C° 0 mm 0 mps 751 mmHg 36%
    16:00 +14°C° 0 mm 0 mps 751 mmHg 35%
    17:00 +14°C° 0 mm 1 mps 751 mmHg 38%
    18:00 +13°C° 0 mm 1 mps 751 mmHg 41%
    19:00 +11°C° 0 mm 1 mps 751 mmHg 45%
    20:00 +10°C° 0 mm 2 mps 751 mmHg 48%
    21:00 +9°C° 0 mm 2 mps 751 mmHg 51%
    22:00 +8°C° 0 mm 3 mps 751 mmHg 54%
    23:00 +8°C° 0 mm 3 mps 751 mmHg 56%

    12 April, Sunday

    Time Temperature Precipitation Wind Pressure Humidity
    00:00 +8°C° 0 mm 3 mps 751 mmHg 59%
    01:00 +7°C° 0 mm 3 mps 751 mmHg 62%
    02:00 +7°C° 0 mm 3 mps 750 mmHg 62%
    03:00 +5°C° 0 mm 3 mps 750 mmHg 63%
    04:00 +5°C° 0 mm 3 mps 750 mmHg 63%
    05:00 +7°C° 0 mm 3 mps 749 mmHg 62%
    06:00 +8°C° 0 mm 3 mps 749 mmHg 61%
    07:00 +9°C° 0 mm 3 mps 749 mmHg 60%
    08:00 +11°C° 0 mm 4 mps 748 mmHg 55%
    09:00 +13°C° 0 mm 4 mps 748 mmHg 50%
    10:00 +15°C° 0 mm 4 mps 748 mmHg 44%
    11:00 +17°C° 0 mm 4 mps 747 mmHg 42%
    12:00 +18°C° 0 mm 4 mps 747 mmHg 40%
    13:00 +19°C° 0 mm 4 mps 746 mmHg 38%
    14:00 +19°C° 0 mm 4 mps 745 mmHg 39%
    15:00 +19°C° 0 mm 4 mps 745 mmHg 40%
    16:00 +19°C° 0 mm 4 mps 744 mmHg 40%
    17:00 +18°C° 0 mm 4 mps 743 mmHg 47%
    18:00 +16°C° 0 mm 3 mps 743 mmHg 53%
    19:00 +14°C° 0 mm 3 mps 743 mmHg 60%
    20:00 +13°C° 0 mm 4 mps 742 mmHg 62%
    21:00 +13°C° 0 mm 5 mps 742 mmHg 65%
    22:00 +13°C° 0 mm 6 mps 742 mmHg 67%
    23:00 +11°C° 0 mm 6 mps 742 mmHg 66%
    Show more